Regional Weather Roundup
Issued by NWS

Home | Current Version | Previous Version | Graphics & Text | Print | Product List | Glossary On
Versions: 1 2 3 4 5 6 7 8 9 10 11 12 13 14 15 16 17 18 19 20 21 22 23 24 25 26 27 28 29 30 31 32 33 34 35 36 37 38 39 40 41 42 43 44 45 46 47 48 49 50
000
ASUS43 KIND 040809
RWRIN

WEATHER ROUNDUP FOR INDIANA
NATIONAL WEATHER SERVICE INDIANAPOLIS IN
400 AM EDT FRI SEP 04 2015

NOTE: "FAIR" INDICATES FEW OR NO CLOUDS BELOW 12,000 FEET WITH NO
SIGNIFICANT WEATHER AND/OR OBSTRUCTIONS TO VISIBILITY.

* - STATION DOES NOT REPORT WEATHER SUCH AS PRECIPITATION OR FOG.

+ - STATION NOT QUALITY CONTROLLED BY THE NATIONAL WEATHER SERVICE.
    USE DATA WITH CAUTION...ESPECIALLY DEWPOINT AND RELATIVE
    HUMIDITY OBSERVATIONS.

INZ001>003-010>013-019-020-040900-
NORTHWEST INDIANA

CITY           SKY/WX    TMP DP  RH WIND       PRES   REMARKS
GARY /AIRPORT/ CLEAR     69  66  89 CALM      29.96S
KNOX *+        CLEAR     64  64 100 CALM      29.95S
LA PORTE +     CLEAR    N/A N/A N/A CALM      29.97R
MICHIGAN CITY+ CLEAR     64  64 100 CALM      29.97S FOG
MONTICELLO +   CLEAR     67  67 100 CALM      29.95S
RENSSELAER +   CLEAR     68  68 100 N3        29.96S FOG
VALPARAISO     CLEAR     69  66  90 CALM      29.97S

$$

LMZ046-743>745-040900-
SOUTHERN LAKE MICHIGAN

STATION/POSITION TIME  TEMP    WIND        PRES    WAVE
                       AIR SEA DIR/SP/G            HT
                 (UTC) (F)     (DEG/KT/KT) (MB)    (FT)
BURNS HARBOR     0700   72      30/  5/  7 1014.9F
MICHIGAN CITY    0700   71     360/  4/  4   N/A
5NW MICH CITY    0800   72 73   20/  6/ 10   N/A     2

$$

INZ004-005-014>016-021>024-040900-
NORTH CENTRAL INDIANA

CITY           SKY/WX    TMP DP  RH WIND       PRES   REMARKS
GOSHEN         PTCLDY    68  66  93 CALM      29.95S FOG
LOGANSPORT +   CLEAR     66  63  88 SW3       29.96S
PERU/GRISSOM   CLEAR     70  67  90 SW3       29.95S
ROCHESTER +    CLEAR     72  70  94 CALM      29.96R
SOUTH BEND     CLEAR     67  65  93 CALM      29.97S
WARSAW +       CLEAR     70  68  94 CALM      29.96R FOG

$$

INZ006>009-017-018-025>027-040900-
NORTHEAST INDIANA

CITY           SKY/WX    TMP DP  RH WIND       PRES   REMARKS
ANGOLA *+      PTCLDY    68  59  73 CALM      29.96R
AUBURN +       PTCLDY    72  66  83 CALM      29.96R
FORT WAYNE     MOCLDY    70  67  90 SW7       29.96S
HUNTINGTON +   CLEAR     70  66  88 CALM      29.96R

$$

INZ028-029-035-036-043>045-051>053-040900-
WEST CENTRAL INDIANA

CITY           SKY/WX    TMP DP  RH WIND       PRES   REMARKS
CRAWFORDSVL +  CLEAR     64  64 100 CALM      29.97S FOG
GREENCASTLE +  CLEAR     68  63  83 CALM      29.99R
LAFAYETTE      CLEAR     68  66  93 CALM      29.95R
TERRE HAUTE    CLEAR     66  65  96 CALM      29.97S

$$

INZ030>032-037>040-046>048-054>057-064-065-040900-
CENTRAL INDIANA

CITY           SKY/WX    TMP DP  RH WIND       PRES   REMARKS
FRANKFORT +    CLEAR    N/A N/A N/A CALM      29.99R
GREENWOOD *+   CLEAR     68  64  88 CALM      29.99S
INDIANAPOLIS   CLEAR     73  66  78 CALM      29.97S
-EAGLE CREEK   PTCLDY    71  67  87 CALM      29.97S
KOKOMO *+      CLEAR     72  64  78 SW7       29.96S
MARION +       CLEAR     67  60  77 CALM      29.98R
MT COMFORT *+  CLEAR     68 N/A N/A CALM      29.99S
SHELBYVILLE    CLEAR     69  65  86 CALM      29.98R FOG
ZIONSVILLE +   CLEAR     67  63  89 CALM      29.99S

$$

INZ033-034-041-042-049-050-058-059-040900-
EAST CENTRAL INDIANA

CITY           SKY/WX    TMP DP  RH WIND       PRES   REMARKS
MUNCIE         PTCLDY    72  66  81 SW5       29.98R

$$

INZ060-061-067>069-081>083-085>088-040900-
SOUTHWEST INDIANA

CITY           SKY/WX    TMP DP  RH WIND       PRES   REMARKS
EVANSVILLE     CLEAR     71  69  93 CALM      29.98R FOG
HUNTINGBURG *+ CLEAR     70  64  83 SE5       29.98S
WASHINGTON +   CLEAR     69  65  87 CALM      29.97S

$$

INZ062-063-066-070>080-084-089>092-040900-
SOUTH CENTRAL AND SOUTHEAST INDIANA

CITY           SKY/WX    TMP DP  RH WIND       PRES   REMARKS
BLOOMINGTON    CLEAR     68  66  93 CALM      29.99R
MADISON *+       N/A     66  64  94 CALM      30.01S
NORTH VERNON + CLEAR     70  70 100 CALM      29.99S FOG
SEYMOUR +      FOG       66  66 100 CALM      29.98S VSB 1/2

$$




USA.gov is the U.S. government's official web portal to all federal, state and local government web resources and services.